When you browse on this site, cookies collect data to enhance your experience and personalize the content and advertising you see.
Visit our Privacy Policy to learn more. By continuing to use the site, you agree to this use of cookies and data.
  • In Lithuania
  • List of Countries
  • For 7 days
  • Water Temperature
  • Weather Map
  • Weather Widgets
  • user-avatar
    Login

    Hourly Weather Hama

    Today, 31 May, Sunday

    Time Temperature Precipitation Wind Pressure Humidity
    00:00 +18°C° 0 mm 1 mps 735 mmHg 65%
    01:00 +16°C° 0 mm 1 mps 734 mmHg 67%
    02:00 +16°C° 0 mm 1 mps 734 mmHg 70%
    03:00 +15°C° 0 mm 1 mps 734 mmHg 71%
    04:00 +15°C° 0 mm 1 mps 734 mmHg 71%
    05:00 +15°C° 0 mm 1 mps 734 mmHg 72%
    06:00 +18°C° 0 mm 1 mps 735 mmHg 62%
    07:00 +20°C° 0 mm 1 mps 735 mmHg 53%
    08:00 +22°C° 0 mm 1 mps 735 mmHg 42%
    09:00 +24°C° 0 mm 1 mps 735 mmHg 36%
    10:00 +26°C° 0 mm 1 mps 735 mmHg 30%
    11:00 +28°C° 0 mm 2 mps 735 mmHg 24%
    12:00 +29°C° 0 mm 2 mps 734 mmHg 22%
    13:00 +30°C° 0 mm 3 mps 734 mmHg 20%
    14:00 +31°C° 0 mm 3 mps 733 mmHg 18%
    15:00 +30°C° 0 mm 4 mps 733 mmHg 20%
    16:00 +30°C° 0 mm 5 mps 733 mmHg 22%
    17:00 +29°C° 0 mm 5 mps 732 mmHg 24%
    18:00 +26°C° 0 mm 5 mps 732 mmHg 32%
    19:00 +23°C° 0 mm 4 mps 732 mmHg 39%
    20:00 +21°C° 0 mm 4 mps 733 mmHg 46%
    21:00 +20°C° 0 mm 3 mps 733 mmHg 48%
    22:00 +19°C° 0 mm 3 mps 733 mmHg 50%
    23:00 +18°C° 0 mm 2 mps 733 mmHg 53%

    Tomorrow, 1 June, Monday

    Time Temperature Precipitation Wind Pressure Humidity
    00:00 +18°C° 0 mm 2 mps 732 mmHg 55%
    01:00 +17°C° 0 mm 2 mps 732 mmHg 57%
    02:00 +17°C° 0 mm 2 mps 732 mmHg 59%
    03:00 +17°C° 0 mm 2 mps 732 mmHg 61%
    04:00 +17°C° 0 mm 2 mps 732 mmHg 62%
    05:00 +16°C° 0 mm 2 mps 732 mmHg 64%
    06:00 +20°C° 0 mm 1 mps 732 mmHg 55%
    07:00 +22°C° 0 mm 1 mps 733 mmHg 47%
    08:00 +24°C° 0 mm 1 mps 733 mmHg 39%
    09:00 +26°C° 0 mm 2 mps 733 mmHg 34%
    10:00 +28°C° 0 mm 3 mps 733 mmHg 30%
    11:00 +30°C° 0 mm 4 mps 733 mmHg 25%
    12:00 +30°C° 0 mm 5 mps 732 mmHg 24%
    13:00 +32°C° 0 mm 6 mps 732 mmHg 23%
    14:00 +32°C° 0 mm 7 mps 732 mmHg 22%
    15:00 +30°C° 0 mm 7 mps 731 mmHg 23%
    16:00 +29°C° 0 mm 6 mps 731 mmHg 25%
    17:00 +28°C° 0 mm 6 mps 731 mmHg 27%
    18:00 +27°C° 0 mm 5 mps 731 mmHg 32%
    19:00 +25°C° 0 mm 4 mps 731 mmHg 38%
    20:00 +22°C° 0 mm 3 mps 731 mmHg 43%
    21:00 +23°C° 0 mm 2 mps 731 mmHg 44%
    22:00 +21°C° 0 mm 2 mps 731 mmHg 45%
    23:00 +22°C° 0 mm 1 mps 730 mmHg 45%

    Day after tomorrow, 2 June, Tuesday

    Time Temperature Precipitation Wind Pressure Humidity
    00:00 +21°C° 0 mm 1 mps 730 mmHg 46%
    01:00 +21°C° 0 mm 1 mps 729 mmHg 46%
    02:00 +19°C° 0 mm 0 mps 729 mmHg 47%
    03:00 +19°C° 0 mm 0 mps 729 mmHg 47%
    04:00 +19°C° 0 mm 0 mps 729 mmHg 47%
    05:00 +21°C° 0 mm 1 mps 729 mmHg 48%
    06:00 +23°C° 0 mm 1 mps 729 mmHg 42%
    07:00 +25°C° 0 mm 1 mps 729 mmHg 36%
    08:00 +27°C° 0 mm 1 mps 729 mmHg 30%
    09:00 +29°C° 0 mm 1 mps 729 mmHg 26%
    10:00 +31°C° 0 mm 1 mps 729 mmHg 23%
    11:00 +33°C° 0 mm 1 mps 729 mmHg 19%
    12:00 +35°C° 0 mm 2 mps 729 mmHg 18%
    13:00 +36°C° 0 mm 2 mps 728 mmHg 17%
    14:00 +37°C° 0 mm 3 mps 727 mmHg 15%
    15:00 +36°C° 0 mm 4 mps 727 mmHg 17%
    16:00 +35°C° 0 mm 6 mps 726 mmHg 18%
    17:00 +34°C° 0 mm 8 mps 726 mmHg 20%
    18:00 +32°C° 0 mm 7 mps 726 mmHg 25%
    19:00 +28°C° 0 mm 7 mps 726 mmHg 31%
    20:00 +26°C° 0 mm 6 mps 727 mmHg 37%
    21:00 +23°C° 0 mm 6 mps 727 mmHg 48%
    22:00 +22°C° 0 mm 7 mps 727 mmHg 59%
    23:00 +21°C° 0 mm 7 mps 728 mmHg 69%

    3 June, Wednesday

    Time Temperature Precipitation Wind Pressure Humidity
    00:00 +20°C° 0 mm 7 mps 728 mmHg 71%
    01:00 +20°C° 0 mm 7 mps 728 mmHg 73%
    02:00 +18°C° 0 mm 7 mps 728 mmHg 75%
    03:00 +18°C° 0 mm 7 mps 728 mmHg 76%
    04:00 +18°C° 0 mm 7 mps 728 mmHg 76%
    05:00 +19°C° 0 mm 6 mps 729 mmHg 77%
    06:00 +20°C° 0 mm 7 mps 729 mmHg 68%
    07:00 +22°C° 0 mm 8 mps 730 mmHg 59%
    08:00 +23°C° 0 mm 9 mps 730 mmHg 49%
    09:00 +24°C° 0 mm 9 mps 730 mmHg 45%
    10:00 +26°C° 0 mm 9 mps 730 mmHg 41%
    11:00 +27°C° 0 mm 9 mps 731 mmHg 36%
    12:00 +28°C° 0 mm 9 mps 730 mmHg 36%
    13:00 +28°C° 0 mm 9 mps 730 mmHg 36%
    14:00 +28°C° 0 mm 9 mps 730 mmHg 36%
    15:00 +27°C° 0 mm 8 mps 730 mmHg 37%
    16:00 +26°C° 0 mm 7 mps 730 mmHg 39%
    17:00 +26°C° 0 mm 6 mps 730 mmHg 41%
    18:00 +23°C° 0 mm 5 mps 731 mmHg 49%
    19:00 +21°C° 0 mm 4 mps 731 mmHg 58%
    20:00 +19°C° 0 mm 3 mps 731 mmHg 66%
    21:00 +19°C° 0 mm 3 mps 731 mmHg 71%
    22:00 +18°C° 0 mm 2 mps 732 mmHg 76%
    23:00 +17°C° 0 mm 2 mps 732 mmHg 80%

    4 June, Thursday

    Time Temperature Precipitation Wind Pressure Humidity
    00:00 +17°C° 0 mm 2 mps 732 mmHg 82%
    01:00 +16°C° 0 mm 2 mps 731 mmHg 84%
    02:00 +16°C° 0 mm 1 mps 731 mmHg 85%
    03:00 +16°C° 0 mm 1 mps 731 mmHg 85%
    04:00 +16°C° 0 mm 1 mps 731 mmHg 84%
    05:00 +16°C° 0 mm 1 mps 731 mmHg 83%
    06:00 +19°C° 0 mm 1 mps 732 mmHg 70%
    07:00 +21°C° 0 mm 1 mps 732 mmHg 57%
    08:00 +23°C° 0 mm 1 mps 732 mmHg 44%
    09:00 +25°C° 0 mm 1 mps 732 mmHg 37%
    10:00 +27°C° 0 mm 2 mps 733 mmHg 31%
    11:00 +29°C° 0 mm 2 mps 733 mmHg 24%
    12:00 +30°C° 0 mm 3 mps 733 mmHg 23%
    13:00 +32°C° 0 mm 4 mps 732 mmHg 22%
    14:00 +32°C° 0 mm 6 mps 732 mmHg 21%
    15:00 +30°C° 0 mm 6 mps 732 mmHg 24%
    16:00 +29°C° 0 mm 6 mps 732 mmHg 27%
    17:00 +28°C° 0 mm 6 mps 732 mmHg 31%
    18:00 +26°C° 0 mm 6 mps 732 mmHg 38%
    19:00 +23°C° 0 mm 5 mps 732 mmHg 46%
    20:00 +21°C° 0 mm 4 mps 732 mmHg 53%
    21:00 +20°C° 0 mm 3 mps 733 mmHg 57%
    22:00 +19°C° 0 mm 2 mps 733 mmHg 61%
    23:00 +18°C° 0 mm 2 mps 733 mmHg 64%

    5 June, Friday

    Time Temperature Precipitation Wind Pressure Humidity
    00:00 +18°C° 0 mm 2 mps 733 mmHg 67%
    01:00 +18°C° 0 mm 1 mps 733 mmHg 69%
    02:00 +18°C° 0 mm 1 mps 732 mmHg 71%
    03:00 +18°C° 0 mm 1 mps 732 mmHg 71%
    04:00 +18°C° 0 mm 1 mps 733 mmHg 71%
    05:00 +18°C° 0 mm 1 mps 733 mmHg 71%
    06:00 +20°C° 0 mm 1 mps 733 mmHg 60%
    07:00 +22°C° 0 mm 1 mps 733 mmHg 49%
    08:00 +24°C° 0 mm 1 mps 734 mmHg 38%
    09:00 +26°C° 0 mm 1 mps 734 mmHg 32%
    10:00 +28°C° 0 mm 1 mps 734 mmHg 26%
    11:00 +30°C° 0 mm 1 mps 734 mmHg 19%
    12:00 +31°C° 0 mm 2 mps 734 mmHg 19%
    13:00 +32°C° 0 mm 2 mps 733 mmHg 18%
    14:00 +34°C° 0 mm 3 mps 733 mmHg 18%
    15:00 +33°C° 0 mm 3 mps 733 mmHg 20%
    16:00 +33°C° 0 mm 4 mps 733 mmHg 23%
    17:00 +32°C° 0 mm 5 mps 732 mmHg 26%
    18:00 +29°C° 0 mm 4 mps 732 mmHg 33%
    19:00 +26°C° 0 mm 4 mps 733 mmHg 41%
    20:00 +23°C° 0 mm 4 mps 733 mmHg 48%
    21:00 +22°C° 0 mm 3 mps 733 mmHg 50%
    22:00 +21°C° 0 mm 3 mps 733 mmHg 52%
    23:00 +20°C° 0 mm 2 mps 733 mmHg 54%
    Show more